[[{"header":{"parameterUnit":"m.s-1","parameterCategory":1,"la1":30.2991,"la2":30.254,"lo1":-89.0895,"lo2":-89.0444,"dy":0.0017,"dx":0.0017,"nx":28,"ny":28,"refTime":"2023-10-30T03:00:00:Z","depth":0,"parameterNumber":2,"parameterNumberName":"U-component_of_WINDS"},"data":[0,0,0,0,0,0,0,0,0,0,0,0,0,0,0,0,0,0,0,0,0,0,0,0,0,0,0,0,0,0,0,0,0,0,0,0,0,0,0,0,0,0,0,0,0,0,0,0,0,0,0,0,0,0,0,0,0,0,0.1159,0.1158,0,0.1064,0.1063,0.1062,0.1038,0.1039,0.104,0.104,0.0941,0.0938,0.0935,0,0,0,0,0,0,0,0,0,0,0,0,0,0.132,0.1317,0.1159,0.1158,0.1157,0.1064,0.1063,0.1061,0.1038,0.1039,0.104,0.1041,0.0942,0.0938,0.0934,0,0,0,0,0,0,0,0,0,0,0,0,0,0.124,0.1316,0.1159,0.1134,0.1131,0.1064,0.1063,0.1061,0.1038,0.1039,0.104,0.1041,0.0943,0.0938,0.0934,0.0885,0,0,0.0919,0.0917,0,0,0,0,0,0,0,0,0.1244,0.1234,0.1139,0.1136,0.1132,0.1064,0.1083,0.1002,0.1038,0.1073,0.104,0.1041,0.0981,0.0973,0.0953,0.088,0.0876,0.0918,0.0916,0.0913,0.0912,0,0,0,0,0,0,0,0.125,0.1238,0.1121,0.1138,0.1133,0.1127,0.1117,0.1067,0.1023,0.107,0.1068,0.1058,0.0979,0.0958,0.0951,0.0875,0.0919,0.0914,0.0911,0.0909,0.0757,0.0756,0,0,0,0,0,0,0.126,0.1243,0.1124,0.1118,0.1192,0.1123,0.1112,0.1085,0.1023,0.1015,0.1057,0.1057,0.0966,0.0956,0.0947,0.0886,0.0913,0.0909,0.0906,0.0759,0.0757,0.0756,0,0,0,0,0,0,0.1264,0.125,0.1128,0.118,0.1164,0.112,0.1089,0.1082,0.1061,0.1013,0.1005,0.1043,0.0966,0.0954,0.0901,0.0882,0.0907,0.0902,0.076,0.0758,0.0757,0.0763,0,0,0,0,0,0,0.1268,0.1251,0.1232,0.118,0.1161,0.1084,0.1088,0.108,0.1053,0.1052,0.0998,0.099,0.0966,0.0908,0.0896,0.0876,0.0899,0.0761,0.0759,0.0757,0.0764,0.0761,0.0759,0,0,0,0,0,0.1274,0.1237,0.1231,0.1217,0.1137,0.1083,0.1072,0.1045,0.1052,0.1032,0.1002,0.0992,0.0886,0.0903,0.0889,0.0867,0.0762,0.076,0.0757,0.0765,0.0762,0.0759,0,0,0,0,0,0,0.1287,0.123,0.1223,0.1168,0.113,0.1079,0.1053,0.1043,0.1002,0.1003,0.0971,0.0959,0.0908,0.0882,0.0902,0.0817,0.0824,0.0819,0.0835,0.0832,0.083,0.0836,0.0895,0,0,0,0,0,0.1284,0.1246,0.1197,0.1153,0.1135,0.1098,0.1073,0.1056,0.1015,0.0999,0.0965,0.0926,0.0884,0.0857,0.0815,0.0761,0.0749,0.0739,0.0737,0.0735,0.073,0.07,0.0695,0.0748,0.0748,0.0748,0,0,0.1277,0.124,0.1218,0.1155,0.1124,0.1084,0.1084,0.1042,0.1012,0.0993,0.094,0.0914,0.0868,0.0815,0.0789,0.0791,0.0713,0.0732,0.0731,0.0727,0.0696,0.0691,0.0687,0.0746,0.0746,0.0746,0,0,0.1242,0.1211,0.1171,0.1141,0.1094,0.107,0.1061,0.1011,0.0993,0.094,0.0925,0.0889,0.0817,0.0786,0.076,0.0716,0.0705,0.0703,0.069,0.0661,0.0657,0.0653,0.0636,0.0631,0.0699,0.0699,0.0699,0,0.1238,0.1178,0.1152,0.1111,0.1084,0.1066,0.1025,0.0996,0.0939,0.092,0.0924,0.0835,0.0803,0.0741,0.073,0.0711,0.0698,0.0708,0.066,0.0655,0.0651,0.0635,0.0629,0.0699,0.0699,0.0699,0.0699,0,0.1175,0.1134,0.1108,0.1053,0.1023,0.0982,0.095,0.0923,0.0909,0.0884,0.0831,0.0793,0.0743,0.0728,0.0713,0.0664,0.0667,0.0666,0.0673,0.0647,0.0631,0.0625,0.0699,0.0699,0.0699,0.0699,0,0,0.1145,0.1078,0.1068,0.1044,0.0992,0.0959,0.0918,0.0871,0.0848,0.0809,0.0774,0.0714,0.0713,0.0684,0.0666,0.0641,0.0608,0.0642,0.0641,0.0636,0.0551,0.0551,0.0545,0.0601,0.06,0.0599,0.0555,0,0.1103,0.1029,0.1005,0.0943,0.0905,0.0888,0.0852,0.0816,0.0793,0.0756,0.073,0.0688,0.069,0.0673,0.0647,0.0617,0.059,0.062,0.0567,0.0565,0.0577,0.0537,0.0537,0.0496,0.0548,0.0547,0.0546,0,0.1044,0.1006,0.094,0.0894,0.0877,0.0845,0.08,0.0766,0.0725,0.071,0.0679,0.0663,0.0619,0.063,0.0569,0.0591,0.0568,0.055,0.0548,0.0541,0.0553,0.0527,0.0483,0.0476,0.0537,0.0538,0.0538,0,0.1027,0.0959,0.0911,0.0891,0.0836,0.0814,0.079,0.0751,0.0724,0.0685,0.0667,0.0624,0.0599,0.0566,0.0539,0.0549,0.048,0.0489,0.0466,0.0466,0.045,0.0451,0.0401,0.0438,0.0438,0.0438,0.0438,0,0.0983,0.0943,0.0903,0.0873,0.0828,0.0802,0.0758,0.0733,0.0699,0.0664,0.0647,0.0615,0.0582,0.0545,0.0524,0.0477,0.0466,0.0452,0.0447,0.0453,0.0454,0.0436,0.0438,0.0436,0.0437,0.0437,0.0437,0,0.0955,0.0927,0.0873,0.0827,0.0814,0.0783,0.0743,0.0713,0.069,0.0646,0.0634,0.0597,0.0553,0.0524,0.0467,0.0453,0.0401,0.0397,0.0415,0.0412,0.039,0.0392,0.0325,0.0314,0.036,0.0359,0.0359,0,0.0928,0.0897,0.0848,0.0823,0.08,0.0761,0.0734,0.0707,0.068,0.0632,0.0609,0.0564,0.0526,0.0457,0.0425,0.0381,0.0375,0.0355,0.0368,0.0376,0.0374,0.0375,0.0372,0.0352,0.0352,0.0351,0.0351,0,0.0882,0.087,0.0832,0.0789,0.0758,0.0723,0.0688,0.0669,0.0636,0.0607,0.0562,0.0533,0.0476,0.0432,0.0386,0.0361,0.035,0.0347,0.0339,0.0345,0.0356,0.0349,0.0408,0.0348,0.0349,0.0349,0.0349,0.0349,0.0853,0.0825,0.0786,0.0744,0.0716,0.0684,0.0654,0.0627,0.059,0.0542,0.0528,0.0482,0.0443,0.0381,0.0355,0.0318,0.032,0.0309,0.0306,0.0303,0.0303,0.0363,0.031,0.031,0.031,0.031,0.031,0,0.0805,0.078,0.0742,0.0694,0.0662,0.0656,0.0617,0.059,0.055,0.0515,0.0479,0.0428,0.0385,0.035,0.0306,0.0284,0.0277,0.0273,0.0273,0.0268,0.0304,0.0315,0.0278,0.0278,0.0278,0.0278,0.0278,0.0278,0.0776,0.0729,0.0712,0.0651,0.0625,0.058,0.0558,0.0529,0.0501,0.0445,0.041,0.0388,0.0353,0.0306,0.0267,0.0258,0.0242,0.0238,0.0228,0.0262,0.0265,0.0269,0.0278,0.0235,0.0235,0.0194,0.0194,0.0194]},{"header":{"parameterUnit":"m.s-1","parameterCategory":1,"la1":30.2991,"la2":30.254,"lo1":-89.0895,"lo2":-89.0444,"dy":0.0017,"dx":0.0017,"nx":28,"ny":28,"refTime":"2023-10-30T03:00:00:Z","depth":0,"parameterNumber":3,"parameterNumberName":"V-component_of_WINDS"},"data":[0,0,0,0,0,0,0,0,0,0,0,0,0,0,0,0,0,0,0,0,0,0,0,0,0,0,0,0,0,0,0,0,0,0,0,0,0,0,0,0,0,0,0,0,0,0,0,0,0,0,0,0,0,0,0,0,0,0,-8.1216,-8.1217,0,-8.1363,-8.1365,-8.1366,-8.1304,-8.13,-8.1297,-8.1293,-8.1436,-8.1443,-8.145,0,0,0,0,0,0,0,0,0,0,0,0,0,-8.0873,-8.088,-8.1216,-8.1218,-8.1219,-8.1363,-8.1365,-8.1367,-8.1304,-8.13,-8.1296,-8.1292,-8.1434,-8.1443,-8.1451,0,0,0,0,0,0,0,0,0,0,0,0,0,-8.1021,-8.0882,-8.1215,-8.1206,-8.1206,-8.1363,-8.1365,-8.1367,-8.1305,-8.13,-8.1294,-8.129,-8.1431,-8.1442,-8.1452,-8.1624,0,0,-8.1485,-8.1489,0,0,0,0,0,0,0,0,-8.1013,-8.1034,-8.1205,-8.1207,-8.1208,-8.131,-8.1297,-8.1453,-8.1306,-8.1267,-8.1293,-8.1287,-8.1398,-8.1411,-8.145,-8.1631,-8.1637,-8.1486,-8.1492,-8.1497,-8.15,0,0,0,0,0,0,0,-8.1003,-8.1027,-8.1274,-8.1208,-8.1209,-8.1192,-8.1207,-8.1326,-8.136,-8.127,-8.1266,-8.1285,-8.1398,-8.144,-8.1453,-8.1639,-8.1486,-8.1495,-8.1502,-8.1506,-8.1969,-8.1974,0,0,0,0,0,0,-8.0993,-8.1019,-8.1269,-8.1278,-8.1095,-8.1202,-8.1219,-8.1282,-8.1359,-8.1366,-8.1289,-8.1281,-8.1424,-8.1441,-8.1458,-8.1665,-8.1497,-8.1507,-8.1513,-8.1963,-8.197,-8.1977,0,0,0,0,0,0,-8.0986,-8.1016,-8.1263,-8.1148,-8.1178,-8.1214,-8.1285,-8.1288,-8.133,-8.1374,-8.1378,-8.1327,-8.1421,-8.1443,-8.1584,-8.1669,-8.1512,-8.1521,-8.1956,-8.1965,-8.1973,-8.208,0,0,0,0,0,0,-8.0977,-8.1014,-8.1082,-8.115,-8.1184,-8.1389,-8.129,-8.1295,-8.135,-8.1341,-8.141,-8.1416,-8.1418,-8.1569,-8.1595,-8.1681,-8.153,-8.1949,-8.196,-8.1971,-8.2069,-8.2091,-8.2111,0,0,0,0,0,-8.0965,-8.1104,-8.1085,-8.1116,-8.127,-8.1394,-8.1414,-8.1416,-8.1357,-8.1424,-8.1452,-8.1414,-8.1656,-8.1584,-8.1612,-8.1703,-8.1943,-8.1957,-8.197,-8.206,-8.2087,-8.211,0,0,0,0,0,0,-8.1042,-8.1113,-8.1093,-8.1259,-8.1322,-8.1384,-8.1468,-8.1444,-8.1523,-8.1511,-8.1508,-8.1524,-8.167,-8.17,-8.1619,-8.1874,-8.179,-8.181,-8.1849,-8.1875,-8.1895,-8.1885,-8.1539,0,0,0,0,0,-8.1079,-8.1177,-8.1232,-8.1373,-8.1406,-8.1432,-8.1486,-8.1483,-8.1546,-8.1572,-8.1609,-8.1671,-8.176,-8.1819,-8.1904,-8.2073,-8.2087,-8.215,-8.217,-8.2187,-8.2204,-8.2296,-8.2324,-8.202,-8.202,-8.202,0,0,-8.1154,-8.1205,-8.1267,-8.139,-8.1438,-8.1537,-8.1454,-8.1563,-8.1636,-8.1587,-8.1724,-8.1754,-8.1821,-8.1978,-8.2048,-8.2008,-8.2291,-8.2204,-8.2217,-8.2225,-8.2312,-8.2341,-8.2367,-8.2029,-8.2027,-8.2026,0,0,-8.1344,-8.1393,-8.1516,-8.1567,-8.1642,-8.1659,-8.1688,-8.1755,-8.1774,-8.1911,-8.1877,-8.1962,-8.2117,-8.2167,-8.2213,-8.2423,-8.2391,-8.245,-8.2558,-8.2648,-8.2672,-8.2693,-8.2768,-8.2794,-8.2467,-8.2467,-8.2467,0,-8.1428,-8.1579,-8.1581,-8.1694,-8.1749,-8.1712,-8.1836,-8.1884,-8.1981,-8.2019,-8.1973,-8.2167,-8.2209,-8.2377,-8.2429,-8.2467,-8.2499,-8.2442,-8.2669,-8.269,-8.271,-8.2781,-8.2809,-8.2474,-8.2473,-8.2472,-8.2472,0,-8.1679,-8.1784,-8.1874,-8.1973,-8.2038,-8.2155,-8.2173,-8.2238,-8.2229,-8.225,-8.239,-8.2441,-8.2535,-8.2575,-8.2566,-8.2741,-8.2714,-8.2668,-8.2584,-8.2745,-8.2812,-8.2839,-8.2484,-8.2481,-8.2479,-8.2477,0,0,-8.192,-8.2021,-8.2054,-8.2098,-8.2179,-8.2259,-8.2374,-8.247,-8.2525,-8.2594,-8.2689,-8.2821,-8.278,-8.2832,-8.2828,-8.2907,-8.307,-8.2852,-8.2853,-8.289,-8.3266,-8.33,-8.3332,-8.305,-8.3055,-8.3059,-8.326,0,-8.2116,-8.2321,-8.2327,-8.2513,-8.261,-8.2577,-8.2677,-8.2736,-8.2759,-8.2843,-8.2866,-8.2961,-8.2899,-8.293,-8.3007,-8.3034,-8.3145,-8.302,-8.3136,-8.3141,-8.3121,-8.3367,-8.3403,-8.359,-8.3287,-8.3291,-8.3294,0,-8.2372,-8.2452,-8.2649,-8.2717,-8.2758,-8.2848,-8.2936,-8.3017,-8.3083,-8.3094,-8.3153,-8.3138,-8.3253,-8.3166,-8.3324,-8.3238,-8.3286,-8.3307,-8.3314,-8.3325,-8.3227,-8.3383,-8.365,-8.3678,-8.3335,-8.3332,-8.3329,0,-8.2528,-8.2685,-8.2824,-8.2863,-8.2945,-8.301,-8.3046,-8.3107,-8.3164,-8.3241,-8.3277,-8.3365,-8.3413,-8.348,-8.3488,-8.3424,-8.3647,-8.356,-8.3658,-8.3658,-8.3706,-8.3702,-8.3984,-8.3737,-8.3737,-8.3736,-8.3736,0,-8.2746,-8.2868,-8.2896,-8.2981,-8.3116,-8.312,-8.3253,-8.3284,-8.3339,-8.3428,-8.3404,-8.3487,-8.3493,-8.3578,-8.3585,-8.3714,-8.3736,-8.3747,-8.3747,-8.3749,-8.3748,-8.378,-8.3767,-8.3744,-8.3742,-8.3741,-8.3739,0,-8.2943,-8.2967,-8.3116,-8.3183,-8.3202,-8.3299,-8.3355,-8.3435,-8.3456,-8.3569,-8.3595,-8.3627,-8.3727,-8.3742,-8.3857,-8.3861,-8.4017,-8.4003,-8.3996,-8.3994,-8.409,-8.4081,-8.4402,-8.4444,-8.4171,-8.4173,-8.4175,0,-8.3081,-8.3175,-8.3252,-8.3312,-8.3353,-8.3448,-8.3508,-8.3515,-8.3577,-8.366,-8.373,-8.3828,-8.3906,-8.4065,-8.4097,-8.4185,-8.4173,-8.428,-8.4186,-8.4186,-8.4175,-8.4169,-8.4178,-8.4298,-8.4301,-8.4303,-8.4305,0,-8.3323,-8.333,-8.3418,-8.3511,-8.3583,-8.3655,-8.3723,-8.3772,-8.3788,-8.3859,-8.3962,-8.4023,-8.4142,-8.4239,-8.4326,-8.4361,-8.4336,-8.4335,-8.4362,-8.4365,-8.4356,-8.4362,-8.4045,-8.4327,-8.4325,-8.4323,-8.4322,-8.4321,-8.3494,-8.3576,-8.3644,-8.3743,-8.3796,-8.386,-8.394,-8.3972,-8.4058,-8.4158,-8.4157,-8.4269,-8.4332,-8.4448,-8.4489,-8.4575,-8.454,-8.458,-8.459,-8.4599,-8.4609,-8.4343,-8.4591,-8.459,-8.459,-8.4589,-8.4589,0,-8.3734,-8.3777,-8.3868,-8.3966,-8.4043,-8.4016,-8.409,-8.4156,-8.4256,-8.4319,-8.4397,-8.4515,-8.4608,-8.4649,-8.474,-8.4801,-8.4792,-8.4825,-8.482,-8.4829,-8.4635,-8.4602,-8.4831,-8.4831,-8.4831,-8.4831,-8.4831,-8.4831,-8.3869,-8.4006,-8.4022,-8.4184,-8.4225,-8.4338,-8.4383,-8.4442,-8.4492,-8.4626,-8.4704,-8.4731,-8.4784,-8.4879,-8.4963,-8.4972,-8.5007,-8.5045,-8.5049,-8.4867,-8.4842,-8.4819,-8.4788,-8.5053,-8.5053,-8.5236,-8.5237,-8.5239]}]]